Sacramento, CA

3:57 PM PDT on March 24, 2017 (GMT -0700)
Sacramento Executive

Weather History for KSAC - March, 2014

Change the Weather History Date:

Wednesday, March 26, 2014

  Actual Average Record
Temperature  
Mean Temperature 56 °F -  
Max Temperature 62 °F 66 °F 88 °F (1988)
Min Temperature 49 °F 45 °F 35 °F (1972)
Degree Days  
Heating Degree Days 9    
Cooling Degree Days 0    
Growing Degree Days 5 (Base 50)    
Moisture  
Dew Point 48 °F    
Average Humidity 78    
Maximum Humidity 100    
Minimum Humidity 56    
Precipitation  
Precipitation 0.35 in 0.07 in 0.61 in (1991)
Month to date precipitation 0.96 2.43  
Year to date precipitation 5.25 9.54  
Since 1 July precipitation 7.15  
Sea Level Pressure  
Sea Level Pressure 29.85 in    
Wind  
Wind Speed 8 mph (South)    
Max Wind Speed 16 mph    
Max Gust Speed 22 mph    
Visibility 9 miles    
Events Rain    
T = Trace of Precipitation, MM = Missing Value Source: NWS Daily Summary

Daily Weather History Graph

Daily Weather History Graph

Search for Another Location

Airport or City:

Trip Planner

Search our weather history database for the weather conditions in past years. The results will help you decide how hot, cold, wet, or windy it might be!

Date:

Astronomy

Mar. 26, 2014 Rise Set
Actual Time 6:59 AM PDT 7:23 PM PDT
Civil Twilight 6:33 AM PDT 7:50 PM PDT
Nautical Twilight 6:02 AM PDT 8:21 PM PDT
Astronomical Twilight 5:30 AM PDT 8:53 PM PDT
Moon 4:09 AM PDT (3/26) 3:11 PM PDT (3/26)
Length of Visible Light 13h 16m
Length of Day
12h 23m
Waning Crescent, 21% of the Moon is Illuminated
Mar 26
Waning Crescent
Mar 30
New
Apr 7
First Quarter
Apr 15
Full
Apr 22
Last Quarter

Hourly Weather History & Observations

Time (PDT) Temp. Dew Point Humidity Pressure Visibility Wind Dir Wind Speed Gust Speed Precip Events Conditions
12:53 AM 54.0 °F 50.0 °F 86% 29.83 in 10.0 mi SSW 9.2 mph - N/A   Clear
1:53 AM 53.1 °F 46.9 °F 80% 29.84 in 10.0 mi SW 8.1 mph - N/A   Partly Cloudy
2:53 AM 52.0 °F 46.0 °F 80% 29.83 in 10.0 mi South 4.6 mph - N/A   Clear
3:53 AM 52.0 °F 46.9 °F 83% 29.82 in 10.0 mi SSW 5.8 mph - N/A   Scattered Clouds
4:53 AM 52.0 °F 48.0 °F 86% 29.81 in 10.0 mi South 3.5 mph - N/A   Mostly Cloudy
5:53 AM 52.0 °F 48.0 °F 86% 29.81 in 10.0 mi SSW 5.8 mph - N/A   Overcast
6:53 AM 50.0 °F 46.9 °F 89% 29.84 in 8.0 mi SW 11.5 mph - 0.04 in Rain Light Rain
7:53 AM 48.9 °F 48.0 °F 97% 29.84 in 6.0 mi SE 3.5 mph - 0.08 in Rain Rain
8:53 AM 50.0 °F 48.0 °F 93% 29.84 in 10.0 mi SSE 4.6 mph - 0.09 in Rain Light Rain
9:53 AM 52.0 °F 50.0 °F 93% 29.85 in 10.0 mi Variable 6.9 mph - 0.00 in   Overcast
10:53 AM 53.1 °F 50.0 °F 89% 29.86 in 8.0 mi SSE 4.6 mph - 0.02 in Rain Light Rain
11:53 AM 53.1 °F 48.9 °F 86% 29.86 in 8.0 mi SE 11.5 mph - 0.05 in Rain Light Rain
12:16 PM 53.6 °F 48.2 °F 82% 29.86 in 8.0 mi SE 9.2 mph - 0.02 in Rain Light Rain
12:24 PM 53.6 °F 48.2 °F 82% 29.86 in 8.0 mi SSE 6.9 mph - 0.02 in Rain Light Rain
12:53 PM 53.1 °F 50.0 °F 89% 29.86 in 6.0 mi SSE 9.2 mph 17.3 mph 0.05 in Rain Light Rain
1:04 PM 51.8 °F 50.0 °F 94% 29.86 in 6.0 mi SSE 10.4 mph - 0.01 in Rain Light Rain
1:33 PM 53.6 °F 50.0 °F 88% 29.85 in 10.0 mi SSE 10.4 mph - 0.02 in Rain Light Rain
1:53 PM 54.0 °F 50.0 °F 86% 29.85 in 10.0 mi SSE 12.7 mph 16.1 mph 0.02 in Rain Light Rain
2:10 PM 55.4 °F 51.8 °F 88% 29.84 in 10.0 mi SSE 11.5 mph - 0.00 in Rain Light Rain
2:20 PM 55.4 °F 51.8 °F 88% 29.84 in 10.0 mi SSE 9.2 mph - 0.00 in Rain Light Rain
2:53 PM 59.0 °F 52.0 °F 78% 29.83 in 10.0 mi SSE 9.2 mph - 0.00 in   Partly Cloudy
3:53 PM 60.1 °F 51.1 °F 72% 29.82 in 10.0 mi SSE 10.4 mph - N/A   Mostly Cloudy
4:53 PM 62.1 °F 46.0 °F 56% 29.81 in 10.0 mi SSW 16.1 mph 21.9 mph N/A   Clear
5:53 PM 60.1 °F 45.0 °F 57% 29.82 in 10.0 mi SW 15.0 mph 25.3 mph N/A   Clear
6:53 PM 57.9 °F 44.1 °F 60% 29.83 in 10.0 mi SW 11.5 mph 26.5 mph N/A   Clear
7:53 PM 55.0 °F 46.0 °F 72% 29.86 in 10.0 mi SSW 8.1 mph - N/A   Clear
8:53 PM 54.0 °F 46.0 °F 75% 29.90 in 10.0 mi South 4.6 mph - N/A   Clear
9:53 PM 53.1 °F 46.0 °F 77% 29.91 in 10.0 mi SSW 9.2 mph - N/A   Clear
10:53 PM 53.1 °F 46.0 °F 77% 29.94 in 10.0 mi SSW 11.5 mph - N/A   Clear
11:53 PM 52.0 °F 46.9 °F 83% 29.96 in 10.0 mi SSW 10.4 mph - N/A   Partly Cloudy